Home > Weather > Neuchâtel > Past weeks

Flag for Switzerland Weather for the Past 2 Weeks in Neuchâtel, Neuchâtel, Switzerland

Now
41 °F

Rain. Partly sunny.


Feels Like: 31 °F
Forecast: 36 / 39 °F
Wind: 25 mph from Southwest

Location: Les Eplatures

Current Time: Feb 9, 2016 at 3:19:53 PM

Latest Report: Feb 9, 2016 at 2:20 PM


Visibility: N/A

Pressure: 29.42 "Hg

Humidity: 87%

Dew point: 37 °F

Location of NeuchâtelLocation

Historic Weather in Neuchâtel — Graph

°F

Neuchâtel Temperature Yesterday

Maximum temperature yesterday: 43 °F (at 2:20 PM)
Minimum temperature yesterday: 28 °F (at 2:20 AM)
Average temperature yesterday: 38 °F

High & Low Weather Summary for the Past Weeks

 TemperatureHumidityPressure
High52 °F (Jan 26, 1:20 PM)100% (Jan 29, 12:20 AM)30.45 "Hg (Jan 29, 12:20 AM)
Low28 °F (Jan 30, 3:50 AM)40% (Jan 25, 2:20 PM)29.42 "Hg (Feb 9, 1:50 PM)
Average39 °F85%30.17 "Hg
* Reported Jan 25 1:20 PM — Feb 9 1:50 PM, Neuchâtel, Weather by CustomWeather, © 2016

Note: Actual official high and low records may vary slightly from our data, if they occured in-between our weather recording intervals... More about our weather records

Advertising

Neuchâtel Weather History for the Previous 24 Hours

 ConditionsComfort  
Time TempWeatherWind HumidityBarometerVisibility
1:50 PM
Tue, Feb 9
43 °FRain showers. Partly sunny.29 mph81%29.42 "HgN/A
1:20 PM43 °FLight rain. Partly sunny.29 mph81%29.45 "HgN/A
12:50 PM43 °FRain showers. Partly sunny.25 mph81%29.47 "HgN/A
12:20 PM43 °FSprinkles. Partly sunny.24 mph81%29.50 "HgN/A
11:20 AM43 °FDrizzle. Partly sunny.25 mph81%29.53 "HgN/A
10:50 AM45 °FSprinkles. Partly sunny.21 mph76%29.53 "HgN/A
10:20 AM43 °FPartly sunny.22 mph81%29.56 "HgN/A
9:50 AM43 °FBroken clouds.21 mph81%29.59 "HgN/A
9:20 AM43 °FScattered showers. Partly sunny.24 mph81%29.62 "HgN/A
8:50 AM41 °FPartly sunny.23 mph87%29.62 "HgN/A
8:20 AM41 °FLight rain. Mostly cloudy.22 mph87%29.65 "HgN/A
7:50 AM41 °FLight rain. Passing clouds.21 mph87%29.65 "HgN/A
7:20 AM41 °FLight rain. Partly cloudy.22 mph81%29.65 "HgN/A
6:50 AM41 °FLight rain. Passing clouds.23 mph87%29.68 "HgN/A
6:20 AM41 °FLight rain. Passing clouds.17 mph87%29.71 "HgN/A
5:50 AM41 °FLight rain. Passing clouds.14 mph87%29.74 "HgN/A
5:20 AM39 °FSprinkles. Partly cloudy.8 mph93%29.77 "HgN/A
4:50 AM39 °FSprinkles. Passing clouds.8 mph87%29.77 "HgN/A
4:20 AM39 °FLight rain. Partly cloudy.10 mph87%29.80 "HgN/A
3:50 AM39 °FPartly cloudy.9 mph87%29.80 "HgN/A
3:20 AM39 °FPassing clouds.12 mph81%29.83 "HgN/A
2:20 AM37 °FSprinkles. Passing clouds.8 mph93%29.86 "HgN/A
1:50 AM37 °FSprinkles. Passing clouds.12 mph93%29.86 "HgN/A
1:20 AM37 °FSprinkles. Passing clouds.12 mph87%29.86 "HgN/A
12:50 AM36 °FPartly cloudy.10 mph93%29.86 "HgN/A
12:20 AM37 °FSprinkles. Passing clouds.22 mph93%29.86 "HgN/A
11:50 PM
Mon, Feb 8
39 °FPartly cloudy.22 mph87%29.86 "HgN/A
11:20 PM39 °FPartly cloudy.18 mph87%29.86 "HgN/A
10:50 PM39 °FSprinkles. Passing clouds.18 mph87%29.86 "HgN/A
10:20 PM39 °FPartly cloudy.18 mph87%29.86 "HgN/A
9:50 PM39 °FPassing clouds.22 mph87%29.86 "HgN/A
9:20 PM39 °FPassing clouds.28 mph87%29.86 "HgN/A
8:50 PM41 °FPartly cloudy.18 mph87%29.83 "HgN/A
8:20 PM41 °FSprinkles. Passing clouds.17 mph87%29.83 "HgN/A
7:50 PM39 °FPassing clouds.12 mph87%29.83 "HgN/A
7:20 PM39 °FSprinkles. Passing clouds.17 mph93%29.83 "HgN/A
6:50 PM41 °FSprinkles. Passing clouds.20 mph87%29.80 "HgN/A
6:20 PM41 °FPartly sunny.21 mph87%29.80 "HgN/A
5:50 PM41 °FPartly sunny.18 mph87%29.77 "HgN/A
5:20 PM41 °FMostly cloudy.25 mph87%29.77 "HgN/A
4:50 PM41 °FSprinkles. Mostly cloudy.18 mph87%29.77 "HgN/A
4:20 PM41 °FSprinkles. Mostly cloudy.21 mph87%29.77 "HgN/A
3:50 PM41 °FSprinkles. Broken clouds.20 mph87%29.74 "HgN/A
3:20 PM43 °FSprinkles. Broken clouds.21 mph81%29.74 "HgN/A
Weather by CustomWeather, © 2016

See weather overviewHow to use our weather pages